DW7661 Weather Reports


Display with metric or nautical units.
time (UTC)temp
F
wind
direction
speed
MPH
gust
MPH
rain 1hr
in
rain 24hr
in
rain mn
in
humidity
%
barometer
mb
20260507080003 56 43 3.0 6.0 0.00 0.00 0.00 67 1015.9
20260507075403 56 35 3.0 7.0 0.00 0.00 0.00 67 1015.8
20260507074503 56 62 2.0 7.0 0.00 0.00 0.00 68 1015.8
20260507073603 56 63 2.0 5.0 0.00 0.00 0.00 69 1015.8
20260507072703 56 52 2.0 6.0 0.00 0.00 0.00 70 1015.7
20260507071803 56 61 3.0 6.0 0.00 0.00 0.00 69 1015.7
20260507070903 56 63 2.0 7.0 0.00 0.00 0.00 68 1015.7
20260507070218 55 74 3.0 7.0 0.00 0.00 0.00 68 1015.7
20260507065403 55 53 3.0 7.0 0.00 0.00 0.00 69 1015.7
20260507064503 54 44 3.0 8.0 0.00 0.00 0.00 69 1015.7
20260507063603 54 37 3.0 6.0 0.00 0.00 0.00 71 1015.7
20260507062703 53 39 3.0 8.0 0.00 0.00 0.00 72 1015.6
20260507061803 52 45 3.0 7.0 0.00 0.00 0.00 76 1015.5
20260507060903 51 35 2.0 5.0 0.00 0.00 0.00 78 1015.4
20260507060003 50 22 3.0 7.0 0.00 0.00 0.00 79 1015.4
20260507055403 50 20 3.0 7.0 0.00 0.00 0.00 80 1015.4
20260507054716 50 24 3.0 5.0 0.00 0.00 0.00 81 1015.3
20260507053818 50 22 4.0 6.0 0.00 0.00 0.00 81 1015.3
20260507052703 50 30 2.0 4.0 0.00 0.00 0.00 82 1015.2
20260507051803 49 20 3.0 5.0 0.00 0.00 0.00 82 1015.1
20260507050903 49 23 3.0 6.0 0.00 0.00 0.00 83 1014.9
20260507050006 49 21 3.0 5.0 0.00 0.00 0.00 83 1014.8
20260507045403 49 14 2.0 5.0 0.00 0.00 0.00 83 1014.8
20260507044503 49 18 2.0 5.0 0.00 0.00 0.00 84 1014.7
20260507043603 49 14 3.0 6.0 0.00 0.00 0.00 84 1014.6
20260507042703 49 15 3.0 5.0 0.00 0.00 0.00 84 1014.5
20260507041803 49 12 3.0 5.0 0.00 0.00 0.00 84 1014.5
20260507040903 49 19 2.0 5.0 0.00 0.00 0.00 84 1014.4
20260507040003 49 15 2.0 4.0 0.00 0.00 0.00 84 1014.3
20260507035618 49 16 2.0 6.0 0.00 0.00 0.00 84 1014.3
20260507034503 49 14 2.0 4.0 0.00 0.00 0.00 83 1014.3
20260507033817 49 19 2.0 4.0 0.00 0.00 0.00 83 1014.2
20260507032703 49 22 2.0 4.0 0.00 0.00 0.00 83 1014.1
20260507031803 49 23 2.0 7.0 0.00 0.00 0.00 83 1014.1
20260507030903 50 22 3.0 4.0 0.00 0.00 0.00 83 1013.9
20260507030003 50 19 3.0 6.0 0.00 0.00 0.00 82 1013.9
20260507025403 50 19 3.0 6.0 0.00 0.00 0.00 82 1013.9
20260507024503 50 17 4.0 7.0 0.00 0.00 0.00 81 1013.9
20260507023603 50 15 3.0 6.0 0.00 0.00 0.00 81 1013.9
20260507022703 50 9 3.0 6.0 0.00 0.00 0.00 81 1013.9
20260507021803 50 10 3.0 5.0 0.00 0.00 0.00 80 1013.8
20260507021117 51 6 3.0 6.0 0.00 0.00 0.00 79 1013.7
20260507020003 51 7 3.0 6.0 0.00 0.00 0.00 79 1013.6
20260507015403 51 9 3.0 6.0 0.00 0.00 0.00 78 1013.5
20260507014503 51 5 3.0 6.0 0.00 0.00 0.00 78 1013.4
20260507013603 52 359 3.0 6.0 0.00 0.00 0.00 77 1013.5
20260507012703 52 357 3.0 5.0 0.00 0.00 0.00 76 1013.5
20260507012017 52 360 3.0 6.0 0.00 0.00 0.00 76 1013.5
20260507010903 52 8 2.0 5.0 0.00 0.00 0.00 76 1013.5
20260507010004 52 21 2.0 5.0 0.00 0.00 0.00 74 1013.4
20260507005403 52 18 2.0 5.0 0.00 0.00 0.00 75 1013.4
20260507004503 51 6 2.0 4.0 0.00 0.00 0.00 76 1013.4
20260507003818 51 4 2.0 4.0 0.00 0.00 0.00 76 1013.3
20260507002703 50 338 1.0 3.0 0.00 0.00 0.00 76 1013.3
20260507001803 50 326 0.0 3.0 0.00 0.00 0.00 77 1013.3
20260507001118 50 304 0.0 2.0 0.00 0.00 0.00 78 1013.3
20260507000003 50 359 0.0 2.0 0.00 0.00 0.00 77 1013.2
20260506235617 50 3 0.0 2.0 0.00 0.00 0.00 78 1013.2
20260506234716 50 0 0.0 0.0 0.00 0.00 0.00 77 1013.2
20260506233603 50 0 0.0 0.0 0.00 0.00 0.00 77 1013.1
20260506232703 50 0 0.0 2.0 0.00 0.00 0.00 77 1013.1
20260506231803 50 5 0.0 2.0 0.00 0.00 0.00 76 1013.0
20260506230903 51 0 0.0 0.0 0.00 0.00 0.00 76 1013.0
20260506230003 51 15 0.0 2.0 0.00 0.00 0.00 75 1012.9
20260506225617 51 19 0.0 2.0 0.00 0.00 0.00 75 1012.8
20260506224503 51 39 0.0 2.0 0.00 0.00 0.00 74 1012.8
20260506223817 51 68 0.0 2.0 0.00 0.00 0.00 75 1012.9
20260506222703 51 0 0.0 0.0 0.00 0.00 0.00 75 1012.8
20260506221803 52 0 0.0 0.0 0.00 0.00 0.00 75 1012.8
20260506220903 52 0 0.0 0.0 0.00 0.00 0.00 72 1012.7
20260506220004 52 65 0.0 2.0 0.00 0.00 0.00 72 1012.7
20260506215403 52 65 0.0 2.0 0.00 0.00 0.00 72 1012.7
20260506214503 52 64 0.0 2.0 0.00 0.00 0.00 72 1012.7
20260506213603 52 0 0.0 0.0 0.00 0.00 0.00 72 1012.6
20260506212703 52 0 0.0 0.0 0.00 0.00 0.00 73 1012.5
20260506211803 52 0 0.0 0.0 0.00 0.00 0.00 74 1012.5
20260506210903 52 0 0.0 0.0 0.00 0.00 0.00 73 1012.4
20260506210004 52 0 0.0 0.0 0.00 0.00 0.00 73 1012.4
20260506205403 52 0 0.0 0.0 0.00 0.00 0.00 71 1012.3
20260506204717 53 0 0.0 0.0 0.00 0.00 0.00 70 1012.3
20260506203817 53 64 0.0 1.0 0.00 0.00 0.00 68 1012.1
20260506202703 53 64 0.0 2.0 0.00 0.00 0.00 68 1012.0
20260506201803 53 69 0.0 3.0 0.00 0.00 0.00 67 1012.1
20260506200903 53 78 0.0 2.0 0.00 0.00 0.00 66 1012.0
20260506200218 53 82 0.0 2.0 0.00 0.00 0.00 65 1012.0
20260506195403 53 86 0.0 2.0 0.00 0.00 0.00 67 1011.9
20260506194503 53 85 0.0 2.0 0.00 0.00 0.00 65 1011.7
20260506193603 54 89 1.0 3.0 0.00 0.00 0.00 65 1011.7
20260506192703 54 81 1.0 3.0 0.00 0.00 0.00 64 1011.6
20260506191803 54 79 1.0 5.0 0.00 0.00 0.00 64 1011.6
20260506190903 54 62 2.0 5.0 0.00 0.00 0.00 64 1011.5
20260506190004 54 58 1.0 5.0 0.00 0.00 0.00 64 1011.4
20260506185403 54 50 2.0 7.0 0.00 0.00 0.00 63 1011.4
20260506184718 55 56 3.0 7.0 0.00 0.00 0.00 62 1011.2
20260506183604 55 71 4.0 9.0 0.00 0.00 0.00 61 1011.1
20260506182703 55 60 4.0 9.0 0.00 0.00 0.00 61 1011.1
20260506181803 55 58 3.0 9.0 0.00 0.00 0.00 62 1010.9
20260506180903 56 59 3.0 9.0 0.00 0.00 0.00 61 1010.7
20260506180217 56 40 2.0 5.0 0.00 0.00 0.00 61 1010.7
20260506175404 56 32 3.0 6.0 0.00 0.00 0.00 59 1010.5
20260506174503 56 37 3.0 5.0 0.00 0.00 0.00 60 1010.4
20260506173603 56 43 3.0 9.0 0.00 0.00 0.00 59 1010.3
20260506172703 56 47 4.0 10.0 0.00 0.00 0.00 58 1010.2
20260506171803 57 39 3.0 8.0 0.00 0.00 0.00 59 1010.2
20260506170903 57 41 3.0 7.0 0.00 0.00 0.00 58 1010.1
20260506170004 57 31 4.0 9.0 0.00 0.00 0.00 58 1010.0
20260506165403 57 38 5.0 9.0 0.00 0.00 0.00 58 1009.9
20260506164503 57 31 4.0 8.0 0.00 0.00 0.00 59 1009.7
20260506163817 57 33 4.0 8.0 0.00 0.00 0.00 57 1009.8
20260506162703 58 23 4.0 7.0 0.00 0.00 0.00 59 1009.7
20260506161803 58 22 4.0 9.0 0.00 0.00 0.00 59 1009.6
20260506160903 58 23 4.0 7.0 0.00 0.00 0.00 60 1009.6
20260506160003 58 27 4.0 9.0 0.00 0.00 0.00 60 1009.6
20260506155403 58 27 5.0 8.0 0.00 0.00 0.00 60 1009.6
20260506154503 58 4 5.0 9.0 0.00 0.00 0.00 60 1009.6
20260506153603 59 339 4.0 9.0 0.00 0.00 0.00 62 1009.6
20260506152703 59 322 4.0 12.0 0.00 0.00 0.00 64 1009.6
20260506152017 59 305 4.0 12.0 0.00 0.00 0.00 66 1009.6
20260506150903 59 337 4.0 10.0 0.00 0.00 0.00 67 1009.6
20260506150003 58 338 4.0 10.0 0.00 0.00 0.00 65 1009.6
20260506145403 58 339 5.0 10.0 0.00 0.00 0.00 65 1009.6
20260506144503 58 332 4.0 11.0 0.00 0.00 0.00 66 1009.6
20260506143603 58 356 4.0 9.0 0.00 0.00 0.00 63 1009.7
20260506142703 58 6 5.0 10.0 0.00 0.00 0.00 62 1009.6
20260506141803 58 9 5.0 9.0 0.00 0.00 0.00 62 1009.6
20260506140903 58 11 6.0 11.0 0.00 0.00 0.00 60 1009.6
20260506140003 59 353 6.0 12.0 0.00 0.00 0.00 61 1009.6
20260506135403 59 344 5.0 11.0 0.00 0.00 0.00 65 1009.6
20260506134503 59 334 4.0 13.0 0.00 0.00 0.00 68 1009.5
20260506133603 58 347 5.0 13.0 0.00 0.00 0.00 69 1009.6
20260506132703 58 339 5.0 10.0 0.00 0.00 0.00 70 1009.6
20260506131803 57 340 5.0 11.0 0.00 0.00 0.00 72 1009.7
20260506131118 57 331 4.0 10.0 0.00 0.00 0.00 72 1009.6
20260506130003 57 350 5.0 9.0 0.00 0.00 0.00 74 1009.6
20260506125403 57 336 4.0 9.0 0.00 0.00 0.00 73 1009.5
20260506124503 57 324 5.0 11.0 0.00 0.00 0.00 73 1009.4
20260506123603 57 328 5.0 12.0 0.00 0.00 0.00 71 1009.4
20260506122703 58 334 5.0 11.0 0.00 0.00 0.00 70 1009.3
20260506121803 58 336 4.0 10.0 0.00 0.00 0.00 70 1009.3
20260506120903 58 338 4.0 11.0 0.00 0.00 0.00 70 1009.3
20260506120003 59 334 5.0 13.0 0.00 0.00 0.00 69 1009.3
20260506115403 59 335 5.0 12.0 0.00 0.00 0.00 70 1009.3
20260506114503 59 320 4.0 10.0 0.00 0.00 0.00 70 1009.2
20260506113603 58 333 5.0 12.0 0.00 0.00 0.00 72 1009.2
20260506112703 58 317 5.0 10.0 0.00 0.00 0.00 73 1009.2
20260506111803 58 310 3.0 9.0 0.00 0.00 0.00 74 1009.2
20260506110903 57 336 5.0 10.0 0.00 0.00 0.00 73 1009.3
20260506110003 57 320 3.0 8.0 0.00 0.00 0.00 74 1009.3
20260506105403 57 328 4.0 10.0 0.00 0.00 0.00 74 1009.3
20260506104503 57 319 5.0 9.0 0.00 0.00 0.00 72 1009.3
20260506103603 57 350 5.0 11.0 0.00 0.00 0.00 73 1009.3
20260506102703 57 343 4.0 9.0 0.00 0.00 0.00 73 1009.3
20260506101803 56 336 4.0 9.0 0.00 0.00 0.00 73 1009.3
20260506101117 56 332 4.0 11.0 0.00 0.00 0.00 74 1009.3
20260506100003 56 335 5.0 9.0 0.00 0.00 0.00 74 1009.2
20260506095403 56 333 4.0 9.0 0.00 0.00 0.00 75 1009.2
20260506094503 55 338 5.0 15.0 0.00 0.00 0.00 76 1009.2
20260506093816 55 344 4.0 15.0 0.00 0.00 0.00 77 1009.2
20260506092703 55 351 5.0 11.0 0.00 0.00 0.00 78 1009.2
20260506091803 54 343 4.0 9.0 0.00 0.00 0.00 79 1009.2
20260506090903 54 345 5.0 10.0 0.00 0.00 0.00 79 1009.2
20260506090003 54 353 5.0 10.0 0.00 0.00 0.00 78 1009.1
20260506085403 54 344 4.0 10.0 0.00 0.00 0.00 79 1009.1
20260506084503 54 345 5.0 11.0 0.00 0.00 0.00 80 1009.1
20260506083603 53 354 5.0 12.0 0.00 0.00 0.00 80 1009.0
20260506082703 53 342 5.0 11.0 0.00 0.00 0.00 80 1009.0
20260506081803 53 338 5.0 10.0 0.00 0.00 0.00 82 1009.0
20260506080903 52 340 5.0 10.0 0.00 0.00 0.00 82 1008.9